Time,TemperatureF,DewpointF,PressureIn,WindDirection,WindDirectionDegrees,WindSpeedMPH,WindSpeedGustMPH,Humidity,HourlyPrecipIn,Conditions,Clouds,dailyrainin,SoftwareType,DateUTC
2013-03-07 00:00:00,61.0,49.0,-100.00,North,-999,-999.0,-999.0,65,0.00,,,0.00,,2013-03-07 05:00:00,
2013-03-07 00:52:00,61.0,49.0,-100.00,North,-999,-999.0,-999.0,65,0.00,,,0.00,,2013-03-07 05:52:00,
2013-03-07 01:00:00,60.0,48.0,-100.00,North,-999,-999.0,-999.0,64,-99.99,,,0.00,,2013-03-07 06:00:00,
2013-03-07 01:52:00,60.0,48.0,-100.00,North,-999,-999.0,-999.0,64,-99.99,,,0.00,,2013-03-07 06:52:00,
2013-03-07 02:00:00,59.0,47.0,-100.00,North,-999,-999.0,-999.0,65,-99.99,,,0.00,,2013-03-07 07:00:00,
2013-03-07 02:52:00,59.0,47.0,-100.00,North,-999,-999.0,-999.0,65,-99.99,,,0.00,,2013-03-07 07:52:00,
2013-03-07 03:00:00,58.0,47.0,-100.00,North,-999,-999.0,-999.0,68,-99.99,,,0.00,,2013-03-07 08:00:00,
2013-03-07 03:54:00,58.0,47.0,-100.00,North,-999,-999.0,-999.0,68,-99.99,,,0.00,,2013-03-07 08:54:00,
2013-03-07 04:00:00,57.0,51.0,-100.00,North,-999,-999.0,-999.0,81,0.00,,,0.00,,2013-03-07 09:00:00,
2013-03-07 04:53:00,57.0,51.0,-100.00,North,-999,-999.0,-999.0,81,0.00,,,0.00,,2013-03-07 09:53:00,
2013-03-07 05:00:00,56.0,52.0,-100.00,North,-999,-999.0,-999.0,86,0.01,,,0.01,,2013-03-07 10:00:00,
2013-03-07 05:53:00,56.0,52.0,-100.00,North,-999,-999.0,-999.0,86,0.01,,,0.01,,2013-03-07 10:53:00,
2013-03-07 06:00:00,56.0,52.0,-100.00,North,-999,-999.0,-999.0,86,0.00,,,0.01,,2013-03-07 11:00:00,
2013-03-07 06:54:00,56.0,52.0,-100.00,North,-999,-999.0,-999.0,86,0.00,,,0.01,,2013-03-07 11:54:00,
2013-03-07 07:00:00,56.0,51.0,-100.00,North,-999,-999.0,-999.0,84,0.00,,,0.01,,2013-03-07 12:00:00,
2013-03-07 07:53:00,56.0,51.0,-100.00,North,-999,-999.0,-999.0,84,0.00,,,0.01,,2013-03-07 12:53:00,
2013-03-07 08:00:00,55.0,52.0,-100.00,North,-999,-999.0,-999.0,88,0.01,,,0.02,,2013-03-07 13:00:00,
2013-03-07 08:53:00,55.0,52.0,-100.00,North,-999,-999.0,-999.0,88,0.01,,,0.02,,2013-03-07 13:53:00,
2013-03-07 09:00:00,56.0,52.0,-100.00,North,-999,-999.0,-999.0,87,0.00,,,0.02,,2013-03-07 14:00:00,
2013-03-07 09:53:00,56.0,52.0,-100.00,North,-999,-999.0,-999.0,87,0.00,,,0.02,,2013-03-07 14:53:00,
2013-03-07 10:00:00,56.0,51.0,-100.00,North,-999,-999.0,-999.0,84,0.00,,,0.02,,2013-03-07 15:00:00,
2013-03-07 10:53:00,56.0,51.0,-100.00,North,-999,-999.0,-999.0,84,0.00,,,0.02,,2013-03-07 15:53:00,
2013-03-07 11:00:00,56.0,49.0,-100.00,North,-999,-999.0,-999.0,77,0.00,,,0.02,,2013-03-07 16:00:00,
2013-03-07 11:53:00,56.0,49.0,-100.00,North,-999,-999.0,-999.0,77,0.00,,,0.02,,2013-03-07 16:53:00,
2013-03-07 12:00:00,56.0,51.0,-100.00,North,-999,-999.0,-999.0,82,0.00,,,0.02,,2013-03-07 17:00:00,
2013-03-07 12:54:00,56.0,51.0,-100.00,North,-999,-999.0,-999.0,82,0.00,,,0.02,,2013-03-07 17:54:00,
2013-03-07 13:00:00,58.0,50.0,-100.00,North,-999,-999.0,-999.0,77,0.00,,,0.02,,2013-03-07 18:00:00,
2013-03-07 15:00:00,64.0,47.0,-100.00,North,-999,-999.0,-999.0,54,0.00,,,0.02,,2013-03-07 20:00:00,
2013-03-07 15:54:00,64.0,47.0,-100.00,North,-999,-999.0,-999.0,54,0.00,,,0.02,,2013-03-07 20:54:00,
2013-03-07 16:00:00,65.0,44.0,-100.00,North,-999,-999.0,-999.0,46,0.00,,,0.02,,2013-03-07 21:00:00,
2013-03-07 16:53:00,65.0,44.0,-100.00,North,-999,-999.0,-999.0,46,0.00,,,0.02,,2013-03-07 21:53:00,
2013-03-07 17:00:00,65.0,41.0,-100.00,North,-999,-999.0,-999.0,41,0.00,,,0.02,,2013-03-07 22:00:00,
2013-03-07 17:54:00,65.0,41.0,-100.00,North,-999,-999.0,-999.0,41,0.00,,,0.02,,2013-03-07 22:54:00,
2013-03-07 18:00:00,65.0,42.0,-100.00,North,-999,-999.0,-999.0,43,0.00,,,0.02,,2013-03-07 23:00:00,
2013-03-07 18:53:00,65.0,42.0,-100.00,North,-999,-999.0,-999.0,43,0.00,,,0.02,,2013-03-07 23:53:00,
2013-03-07 19:00:00,65.0,42.0,-100.00,North,-999,-999.0,-999.0,43,0.00,,,0.02,,2013-03-08 00:00:00,
2013-03-07 19:53:00,65.0,42.0,-100.00,North,-999,-999.0,-999.0,43,0.00,,,0.02,,2013-03-08 00:53:00,
2013-03-07 20:00:00,65.0,40.0,-100.00,North,-999,-999.0,-999.0,40,0.00,,,0.02,,2013-03-08 01:00:00,
2013-03-07 20:52:00,65.0,40.0,-100.00,North,-999,-999.0,-999.0,40,0.00,,,0.02,,2013-03-08 01:52:00,
2013-03-07 21:00:00,64.0,43.0,-100.00,North,-999,-999.0,-999.0,47,0.00,,,0.02,,2013-03-08 02:00:00,
2013-03-07 21:53:00,64.0,43.0,-100.00,North,-999,-999.0,-999.0,47,0.00,,,0.02,,2013-03-08 02:53:00,
2013-03-07 22:00:00,62.0,45.0,-100.00,North,-999,-999.0,-999.0,53,-99.99,,,0.02,,2013-03-08 03:00:00,
2013-03-07 22:52:00,62.0,45.0,-100.00,North,-999,-999.0,-999.0,53,-99.99,,,0.02,,2013-03-08 03:52:00,
2013-03-07 23:00:00,62.0,44.0,-100.00,North,-999,-999.0,-999.0,51,-99.99,,,0.02,,2013-03-08 04:00:00,